This is the latest recevied weather packets stored in our database for station/object DB0OHA-10. If no packets are shown the sender has not sent any weather packets the latest 10 day(s).
| Time | Temp. | Humidity | Pressure | Rain* | Wind** | Luminosity | Snow |
|---|---|---|---|---|---|---|---|
| 1777025728 | 8.33° C | 1% | 1021.1 hPa | 0 mm | - | 276 W/m² | - |
| 1777024829 | 7.78° C | 1% | 1021.1 hPa | 0 mm | - | 227 W/m² | - |
| 1777023928 | 7.22° C | 1% | 1021.1 hPa | 0 mm | - | 229 W/m² | - |
| 1777023029 | 7.22° C | 1% | 1021 hPa | 0 mm | - | 183 W/m² | - |
| 1777022128 | 6.67° C | 1% | 1021.1 hPa | 0 mm | - | 174 W/m² | - |
| 1777021229 | 6.67° C | 1% | 1021.1 hPa | 0 mm | - | 137 W/m² | - |
| 1777020329 | 6.67° C | 1% | 1021.1 hPa | 0 mm | - | 123 W/m² | - |
| 1777019429 | 6.11° C | 1% | 1021.1 hPa | 0 mm | - | 95 W/m² | - |
| 1777018529 | 6.11° C | 1% | 1021 hPa | 0 mm | - | 105 W/m² | - |
| 1777017629 | 6.11° C | 1% | 1020.9 hPa | 0 mm | - | 109 W/m² | - |
| 1777016729 | 6.11° C | 1% | 1020.8 hPa | 0 mm | - | 91 W/m² | - |
| 1777015829 | 5.56° C | 1% | 1020.7 hPa | 0 mm | - | 88 W/m² | - |
| 1777014929 | 5.56° C | 1% | 1020.7 hPa | 0 mm | - | 104 W/m² | - |
| 1777014029 | 5° C | 1% | 1020.7 hPa | 0 mm | - | 72 W/m² | - |
| 1777013129 | 5° C | 1% | 1020.7 hPa | 0 mm | - | 63 W/m² | - |
| 1777012233 | 5° C | 1% | 1020.7 hPa | 0 mm | - | 56 W/m² | - |
| 1777012231 | 5° C | 1% | 1020.7 hPa | 0 mm | - | 56 W/m² | - |
| 1777012229 | 5° C | 1% | 1020.7 hPa | 0 mm | - | 56 W/m² | - |
| 1777011329 | 5° C | 1% | 1020.7 hPa | 0 mm | - | 44 W/m² | - |
| 1777010429 | 5° C | 1% | 1020.8 hPa | 0 mm | - | 39 W/m² | - |
| 1777009529 | 5° C | 1% | 1020.8 hPa | 0 mm | - | 35 W/m² | - |
| 1777008629 | 5° C | 1% | 1020.8 hPa | 0 mm | - | 37 W/m² | - |
| 1777007729 | 4.44° C | 1% | 1020.8 hPa | 0 mm | - | 33 W/m² | - |
| 1777006829 | 4.44° C | 1% | 1020.5 hPa | 0 mm | - | 26 W/m² | - |
| 1777005929 | 4.44° C | 1% | 1020.5 hPa | 0 mm | - | 16 W/m² | - |
* Rain latest hour (hover to see other rain measurements)
** Current wind speed in m/s (hover to see current wind gust speed)